[[{"header":{"parameterUnit":"m.s-1","parameterCategory":1,"la1":30.2991,"la2":30.254,"lo1":-89.0895,"lo2":-89.0444,"dy":0.0017,"dx":0.0017,"nx":28,"ny":28,"refTime":"2024-03-23T09:00:00:Z","depth":0,"parameterNumber":2,"parameterNumberName":"U-component_of_WINDS"},"data":[0,0,0,0,0,0,0,0,0,0,0,0,0,0,0,0,0,0,0,0,0,0,0,0,0,0,0,0,0,0,0,0,0,0,0,0,0,0,0,0,0,0,0,0,0,0,0,0,0,0,0,0,0,0,0,0,0,0,-1.8366,-1.8367,0,-1.8392,-1.8392,-1.8392,-1.8327,-1.8325,-1.8323,-1.8321,-1.835,-1.8352,-1.8355,0,0,0,0,0,0,0,0,0,0,0,0,0,-1.8262,-1.8264,-1.8366,-1.8367,-1.8367,-1.8392,-1.8392,-1.8392,-1.8328,-1.8325,-1.8323,-1.832,-1.8349,-1.8352,-1.8355,0,0,0,0,0,0,0,0,0,0,0,0,0,-1.83,-1.8265,-1.8366,-1.8337,-1.8335,-1.8392,-1.8392,-1.8393,-1.8328,-1.8325,-1.8322,-1.8319,-1.8348,-1.8352,-1.8356,-1.8442,0,0,-1.8368,-1.8369,0,0,0,0,0,0,0,0,-1.8298,-1.8304,-1.8341,-1.834,-1.8337,-1.8353,-1.8366,-1.8409,-1.8329,-1.8331,-1.8321,-1.8318,-1.8353,-1.8357,-1.8368,-1.8443,-1.8444,-1.8368,-1.8371,-1.8372,-1.8373,0,0,0,0,0,0,0,-1.8295,-1.8302,-1.8376,-1.8342,-1.8339,-1.8324,-1.8325,-1.8374,-1.8359,-1.833,-1.8326,-1.833,-1.8352,-1.8365,-1.8369,-1.8445,-1.8368,-1.8372,-1.8374,-1.8376,-1.8591,-1.8594,0,0,0,0,0,0,-1.8296,-1.83,-1.8376,-1.8377,-1.8309,-1.8328,-1.833,-1.8351,-1.8358,-1.8357,-1.8332,-1.8326,-1.8359,-1.8364,-1.8369,-1.8471,-1.8372,-1.8376,-1.8378,-1.8587,-1.8591,-1.8595,0,0,0,0,0,0,-1.8294,-1.8303,-1.8375,-1.8337,-1.8345,-1.8333,-1.8357,-1.8353,-1.8366,-1.836,-1.8357,-1.8348,-1.8357,-1.8364,-1.8424,-1.8471,-1.8378,-1.8381,-1.8583,-1.8589,-1.8593,-1.8675,0,0,0,0,0,0,-1.8291,-1.8303,-1.8336,-1.8339,-1.8348,-1.8429,-1.836,-1.8356,-1.8373,-1.8366,-1.8374,-1.8372,-1.8355,-1.8418,-1.8428,-1.8475,-1.8385,-1.8579,-1.8586,-1.8592,-1.8668,-1.8682,-1.8694,0,0,0,0,0,-1.8288,-1.8358,-1.8338,-1.8347,-1.8388,-1.8432,-1.8437,-1.8415,-1.8377,-1.841,-1.8405,-1.8372,-1.8464,-1.8425,-1.8435,-1.8484,-1.8576,-1.8584,-1.8591,-1.8662,-1.8679,-1.8693,0,0,0,0,0,0,-1.8362,-1.8358,-1.8335,-1.8409,-1.8421,-1.8421,-1.8462,-1.8434,-1.8458,-1.845,-1.8422,-1.8425,-1.849,-1.8493,-1.845,-1.8567,-1.8513,-1.8523,-1.8564,-1.858,-1.8593,-1.8592,-1.8388,0,0,0,0,0,-1.8387,-1.8422,-1.8417,-1.8482,-1.8489,-1.8475,-1.8493,-1.8475,-1.8486,-1.8492,-1.8492,-1.8505,-1.8536,-1.8558,-1.8587,-1.8667,-1.8668,-1.8705,-1.8718,-1.8729,-1.8738,-1.8781,-1.8797,-1.8619,-1.8619,-1.8619,0,0,-1.8439,-1.8441,-1.8466,-1.8497,-1.8505,-1.8542,-1.8479,-1.8522,-1.855,-1.8498,-1.8555,-1.8555,-1.8568,-1.8639,-1.867,-1.8643,-1.8787,-1.8738,-1.8747,-1.8751,-1.879,-1.8807,-1.8822,-1.8624,-1.8624,-1.8623,0,0,-1.8554,-1.8558,-1.8613,-1.8621,-1.8632,-1.8622,-1.8635,-1.8638,-1.8636,-1.8692,-1.8654,-1.8687,-1.8742,-1.8752,-1.8765,-1.8881,-1.8851,-1.8891,-1.896,-1.9001,-1.9015,-1.9028,-1.907,-1.9085,-1.89,-1.89,-1.89,0,-1.8617,-1.8672,-1.8645,-1.869,-1.8705,-1.8658,-1.8714,-1.8723,-1.8744,-1.8755,-1.8724,-1.8792,-1.8797,-1.8869,-1.8897,-1.8909,-1.8923,-1.8891,-1.9015,-1.9027,-1.9039,-1.9078,-1.9094,-1.8905,-1.8905,-1.8904,-1.8904,0,-1.875,-1.8788,-1.8831,-1.8851,-1.8871,-1.8921,-1.8901,-1.8925,-1.8904,-1.8897,-1.8954,-1.8958,-1.8987,-1.9002,-1.8983,-1.9072,-1.9054,-1.902,-1.8966,-1.9061,-1.9098,-1.9113,-1.8912,-1.891,-1.8909,-1.8908,0,0,-1.8914,-1.8917,-1.8933,-1.8941,-1.895,-1.8979,-1.9026,-1.9053,-1.9074,-1.9089,-1.9128,-1.9175,-1.9142,-1.9157,-1.9138,-1.9174,-1.9266,-1.9135,-1.9135,-1.916,-1.9364,-1.9391,-1.9409,-1.9245,-1.9248,-1.925,-1.9363,0,-1.9028,-1.9109,-1.9085,-1.9167,-1.9202,-1.9157,-1.9198,-1.9207,-1.9201,-1.923,-1.9223,-1.9257,-1.9211,-1.9219,-1.9253,-1.9248,-1.9307,-1.9239,-1.9283,-1.9285,-1.9282,-1.9428,-1.9457,-1.9564,-1.9377,-1.938,-1.9381,0,-1.9172,-1.9191,-1.9276,-1.9277,-1.9291,-1.9329,-1.9351,-1.9379,-1.9388,-1.9381,-1.9396,-1.9369,-1.9416,-1.936,-1.9423,-1.9378,-1.9394,-1.9394,-1.9397,-1.9402,-1.934,-1.9438,-1.9597,-1.9613,-1.9404,-1.9402,-1.94,0,-1.9284,-1.9332,-1.9388,-1.9396,-1.9399,-1.9426,-1.9429,-1.9435,-1.9452,-1.9471,-1.9482,-1.9507,-1.9521,-1.9541,-1.9521,-1.9482,-1.9588,-1.9531,-1.9584,-1.9585,-1.961,-1.9609,-1.9776,-1.9619,-1.9618,-1.9618,-1.9618,0,-1.9414,-1.9468,-1.9439,-1.9474,-1.9533,-1.9504,-1.9564,-1.9561,-1.9566,-1.96,-1.9562,-1.9595,-1.9567,-1.9597,-1.9582,-1.9637,-1.9643,-1.9639,-1.9635,-1.9643,-1.9644,-1.9655,-1.9648,-1.9622,-1.9621,-1.962,-1.962,0,-1.9551,-1.9533,-1.9592,-1.9589,-1.9589,-1.9633,-1.963,-1.9663,-1.9652,-1.9696,-1.9704,-1.9689,-1.9722,-1.9704,-1.9739,-1.9728,-1.98,-1.9785,-1.9797,-1.9794,-1.9849,-1.9844,-2.0029,-2.0052,-1.9879,-1.9881,-1.9882,0,-1.9636,-1.9676,-1.9677,-1.9696,-1.9701,-1.9733,-1.975,-1.9723,-1.9742,-1.9755,-1.9786,-1.9815,-1.9838,-1.9893,-1.9885,-1.9911,-1.9897,-1.996,-1.9901,-1.9908,-1.9899,-1.9898,-1.9902,-1.9973,-1.9975,-1.9976,-1.9978,0,-1.9789,-1.9778,-1.9804,-1.9826,-1.9847,-1.9864,-1.9877,-1.9895,-1.9868,-1.9891,-1.9924,-1.9942,-1.9976,-2.0006,-2.0028,-2.003,-2.0,-1.9996,-2.001,-2.002,-2.0025,-2.0024,-1.9831,-1.9992,-1.9991,-1.999,-1.9989,-1.9988,-1.9904,-1.9937,-1.9942,-1.9972,-1.9978,-1.9991,-2.0021,-2.0014,-2.0041,-2.0066,-2.0048,-2.0087,-2.0094,-2.012,-2.0126,-2.0157,-2.0132,-2.0152,-2.0157,-2.0163,-2.0171,-2.0019,-2.016,-2.016,-2.0159,-2.0159,-2.0159,0,-2.0055,-2.0056,-2.0083,-2.0102,-2.0125,-2.0093,-2.0105,-2.0127,-2.0162,-2.017,-2.0192,-2.023,-2.0258,-2.0252,-2.0277,-2.0303,-2.029,-2.0311,-2.0309,-2.031,-2.0191,-2.0177,-2.0321,-2.0321,-2.0321,-2.0321,-2.0321,-2.0321,-2.0137,-2.0192,-2.0181,-2.0239,-2.0238,-2.0276,-2.0286,-2.0298,-2.0304,-2.0347,-2.037,-2.0365,-2.0368,-2.0393,-2.0417,-2.0415,-2.0426,-2.0453,-2.0445,-2.0335,-2.0319,-2.0304,-2.029,-2.0455,-2.0456,-2.0562,-2.0563,-2.0564]},{"header":{"parameterUnit":"m.s-1","parameterCategory":1,"la1":30.2991,"la2":30.254,"lo1":-89.0895,"lo2":-89.0444,"dy":0.0017,"dx":0.0017,"nx":28,"ny":28,"refTime":"2024-03-23T09:00:00:Z","depth":0,"parameterNumber":3,"parameterNumberName":"V-component_of_WINDS"},"data":[0,0,0,0,0,0,0,0,0,0,0,0,0,0,0,0,0,0,0,0,0,0,0,0,0,0,0,0,0,0,0,0,0,0,0,0,0,0,0,0,0,0,0,0,0,0,0,0,0,0,0,0,0,0,0,0,0,0,-6.4328,-6.4329,0,-6.4459,-6.446,-6.4461,-6.4393,-6.439,-6.4387,-6.4383,-6.4511,-6.4518,-6.4524,0,0,0,0,0,0,0,0,0,0,0,0,0,-6.4013,-6.402,-6.4328,-6.4329,-6.4331,-6.4458,-6.446,-6.4462,-6.4394,-6.439,-6.4386,-6.4382,-6.4509,-6.4517,-6.4525,0,0,0,0,0,0,0,0,0,0,0,0,0,-6.4147,-6.4022,-6.4328,-6.4313,-6.4313,-6.4458,-6.446,-6.4462,-6.4395,-6.439,-6.4385,-6.438,-6.4506,-6.4516,-6.4526,-6.4691,0,0,-6.4556,-6.4561,0,0,0,0,0,0,0,0,-6.414,-6.4159,-6.4313,-6.4314,-6.4314,-6.4404,-6.4396,-6.4539,-6.4396,-6.4364,-6.4383,-6.4377,-6.4479,-6.4491,-6.4527,-6.4697,-6.4703,-6.4557,-6.4563,-6.4567,-6.457,0,0,0,0,0,0,0,-6.4131,-6.4153,-6.4379,-6.4316,-6.4316,-6.4297,-6.4311,-6.4423,-6.4449,-6.4366,-6.4361,-6.4378,-6.4479,-6.4518,-6.453,-6.4705,-6.4557,-6.4566,-6.4572,-6.4576,-6.5016,-6.5021,0,0,0,0,0,0,-6.4123,-6.4146,-6.4375,-6.4383,-6.4213,-6.4307,-6.4322,-6.4381,-6.4448,-6.4453,-6.4382,-6.4374,-6.4503,-6.4518,-6.4534,-6.4732,-6.4567,-6.4577,-6.4582,-6.501,-6.5017,-6.5023,0,0,0,0,0,0,-6.4117,-6.4144,-6.437,-6.4263,-6.4291,-6.4318,-6.4384,-6.4386,-6.4425,-6.446,-6.4464,-6.4418,-6.45,-6.452,-6.4653,-6.4735,-6.4581,-6.459,-6.5003,-6.5012,-6.502,-6.5129,0,0,0,0,0,0,-6.4108,-6.4142,-6.4207,-6.4265,-6.4297,-6.4489,-6.439,-6.4392,-6.4443,-6.4434,-6.4494,-6.4499,-6.4497,-6.4638,-6.4663,-6.4746,-6.4598,-6.4996,-6.5007,-6.5017,-6.5118,-6.514,-6.5159,0,0,0,0,0,-6.4097,-6.4231,-6.4211,-6.4239,-6.4379,-6.4494,-6.4512,-6.4508,-6.445,-6.4514,-6.4536,-6.4497,-6.4722,-6.4653,-6.4679,-6.4767,-6.4991,-6.5004,-6.5017,-6.5109,-6.5136,-6.5158,0,0,0,0,0,0,-6.418,-6.4239,-6.4217,-6.4374,-6.443,-6.4482,-6.4564,-6.4537,-6.4609,-6.4597,-6.4588,-6.4602,-6.474,-6.4766,-6.4688,-6.493,-6.4847,-6.4866,-6.4908,-6.4934,-6.4954,-6.4944,-6.4606,0,0,0,0,0,-6.4217,-6.4308,-6.4353,-6.4488,-6.4517,-6.4536,-6.4586,-6.4579,-6.4635,-6.4658,-6.469,-6.4744,-6.4827,-6.4881,-6.496,-6.5121,-6.5132,-6.5194,-6.5214,-6.5231,-6.5248,-6.5334,-6.5362,-6.5065,-6.5065,-6.5065,0,0,-6.4294,-6.4337,-6.4395,-6.4506,-6.4548,-6.4641,-6.4556,-6.4657,-6.4725,-6.4672,-6.4801,-6.4826,-6.4886,-6.5034,-6.51,-6.506,-6.5332,-6.5247,-6.5261,-6.5268,-6.535,-6.5378,-6.5403,-6.5074,-6.5073,-6.5071,0,0,-6.4481,-6.4524,-6.4641,-6.4685,-6.4751,-6.4762,-6.479,-6.4847,-6.4862,-6.4991,-6.4953,-6.5032,-6.5175,-6.5219,-6.526,-6.5464,-6.543,-6.5489,-6.5596,-6.568,-6.5704,-6.5724,-6.5796,-6.5823,-6.5505,-6.5506,-6.5506,0,-6.4568,-6.4708,-6.4703,-6.4809,-6.4858,-6.4816,-6.4933,-6.4975,-6.5062,-6.5096,-6.505,-6.5228,-6.5265,-6.5423,-6.5473,-6.5507,-6.5538,-6.5483,-6.5701,-6.5722,-6.5741,-6.5809,-6.5837,-6.5513,-6.5512,-6.5511,-6.551,0,-6.4811,-6.4909,-6.4995,-6.5082,-6.5141,-6.5251,-6.5261,-6.5321,-6.5308,-6.5323,-6.5454,-6.5498,-6.5584,-6.562,-6.5608,-6.5776,-6.5748,-6.5702,-6.5619,-6.5776,-6.584,-6.5867,-6.5522,-6.552,-6.5518,-6.5516,0,0,-6.5055,-6.5139,-6.517,-6.5209,-6.5278,-6.5352,-6.546,-6.5546,-6.5597,-6.5657,-6.5746,-6.5868,-6.5826,-6.5872,-6.5864,-6.5938,-6.6096,-6.5883,-6.5884,-6.5921,-6.6283,-6.6317,-6.6348,-6.6074,-6.6079,-6.6083,-6.6277,0,-6.5247,-6.5438,-6.5437,-6.5612,-6.5701,-6.5662,-6.5755,-6.5806,-6.5824,-6.59,-6.5917,-6.6004,-6.5941,-6.5969,-6.6041,-6.6062,-6.6169,-6.6048,-6.6155,-6.6159,-6.6142,-6.6382,-6.6419,-6.6601,-6.6303,-6.6307,-6.631,0,-6.5497,-6.5569,-6.5754,-6.5809,-6.5847,-6.5931,-6.6009,-6.6083,-6.6139,-6.6146,-6.6199,-6.6179,-6.6286,-6.62,-6.6346,-6.6264,-6.6307,-6.6324,-6.6331,-6.6341,-6.6244,-6.6398,-6.6658,-6.6686,-6.6349,-6.6346,-6.6343,0,-6.5657,-6.5799,-6.5928,-6.5962,-6.603,-6.609,-6.6121,-6.6172,-6.6224,-6.6291,-6.6324,-6.6402,-6.6445,-6.6505,-6.6506,-6.6443,-6.6654,-6.6568,-6.6661,-6.6662,-6.6708,-6.6705,-6.6979,-6.6736,-6.6735,-6.6735,-6.6734,0,-6.5872,-6.5986,-6.6,-6.608,-6.6206,-6.6202,-6.6327,-6.6352,-6.6398,-6.648,-6.6449,-6.6526,-6.6523,-6.66,-6.6601,-6.6722,-6.6741,-6.6749,-6.6748,-6.6752,-6.6751,-6.678,-6.6768,-6.6742,-6.674,-6.6739,-6.6738,0,-6.6072,-6.6086,-6.6224,-6.6277,-6.6293,-6.6384,-6.6428,-6.6503,-6.6517,-6.6621,-6.6645,-6.6666,-6.6756,-6.6763,-6.6866,-6.6867,-6.7013,-6.6998,-6.6995,-6.6992,-6.7085,-6.7076,-6.7388,-6.7428,-6.7159,-6.7161,-6.7164,0,-6.6208,-6.6296,-6.6359,-6.6413,-6.6447,-6.6534,-6.6587,-6.6585,-6.6641,-6.6711,-6.6777,-6.6864,-6.6934,-6.7078,-6.7101,-6.718,-6.7166,-6.727,-6.7178,-6.7179,-6.7168,-6.7163,-6.7171,-6.7288,-6.7291,-6.7293,-6.7295,0,-6.6449,-6.6451,-6.653,-6.6611,-6.6675,-6.6739,-6.6797,-6.6842,-6.6848,-6.6911,-6.7004,-6.7058,-6.7164,-6.725,-6.7327,-6.7355,-6.7327,-6.7324,-6.735,-6.7355,-6.735,-6.7354,-6.7044,-6.7317,-6.7315,-6.7313,-6.7312,-6.7311,-6.6621,-6.6697,-6.6753,-6.6841,-6.6886,-6.6941,-6.7014,-6.7038,-6.7115,-6.7203,-6.7197,-6.7299,-6.7351,-6.7451,-6.7486,-6.7564,-6.7529,-6.7566,-6.7575,-6.7585,-6.7595,-6.7338,-6.7578,-6.7577,-6.7576,-6.7576,-6.7575,0,-6.6859,-6.6894,-6.6975,-6.706,-6.7128,-6.7097,-6.716,-6.7219,-6.731,-6.7362,-6.7432,-6.7537,-6.762,-6.765,-6.7731,-6.7788,-6.7776,-6.7809,-6.7805,-6.7812,-6.7622,-6.7591,-6.7817,-6.7817,-6.7817,-6.7817,-6.7817,-6.7817,-6.6992,-6.7119,-6.7128,-6.7275,-6.7308,-6.741,-6.7448,-6.7499,-6.7541,-6.7661,-6.7731,-6.775,-6.7793,-6.7876,-6.7951,-6.7957,-6.7988,-6.8026,-6.8027,-6.7849,-6.7825,-6.7802,-6.7773,-6.8033,-6.8034,-6.821,-6.8212,-6.8213]}]]